Las Vegas, NV

1:47 PM PDT on August 28, 2016 (GMT -0700)
Nellis AFB

Weather History for KLSV - January, 2013

Change the Weather History Date:

Thursday, January 3, 2013

  Actual Average Record
Temperature  
Mean Temperature 42 °F -  
Max Temperature 52 °F 56 °F 69 °F (1997)
Min Temperature 33 °F 34 °F 24 °F (2015)
Degree Days  
Heating Degree Days 22    
Moisture  
Dew Point 7 °F    
Average Humidity 27    
Maximum Humidity 42    
Minimum Humidity 12    
Precipitation  
Precipitation 0.00 in - - ()
Sea Level Pressure  
Sea Level Pressure 30.31 in    
Wind  
Wind Speed 9 mph (NE)    
Max Wind Speed 20 mph    
Max Gust Speed 28 mph    
Visibility 10 miles    
Events      
Averages and records for this station are not official NWS values.
T = Trace of Precipitation, MM = Missing Value Source: NWS Daily Summary

Daily Weather History Graph

Daily Weather History Graph

Search for Another Location

Airport or City:

Trip Planner

Search our weather history database for the weather conditions in past years. The results will help you decide how hot, cold, wet, or windy it might be!

Date:

Astronomy

Jan. 03, 2013 Rise Set
Actual Time 6:51 AM PST 4:38 PM PST
Civil Twilight 6:23 AM PST 5:06 PM PST
Nautical Twilight 5:51 AM PST 5:38 PM PST
Astronomical Twilight 5:19 AM PST 6:09 PM PST
Moon 11:05 PM PST (1/3) 10:17 AM PST (1/3)
Length of Visible Light 10h 43m
Length of Day
9h 46m
Waning Gibbous, 64% of the Moon is Illuminated
Jan 3
Waning Gibbous
Jan 4
Last Quarter
Jan 11
New
Jan 18
First Quarter
Jan 26
Full

Hourly Weather History & Observations

Time (PST) Temp. Windchill Dew Point Humidity Pressure Visibility Wind Dir Wind Speed Gust Speed Precip Events Conditions
12:58 AM 37.9 °F 28.9 °F 11.1 °F 33% 30.25 in 10.0 mi ENE 16.1 mph - N/A   Clear
1:58 AM 36.9 °F 28.7 °F 10.9 °F 34% 30.28 in 10.0 mi East 12.7 mph - N/A   Clear
2:58 AM 37.0 °F 29.8 °F 9.5 °F 32% 30.29 in 10.0 mi ENE 10.4 mph - N/A   Clear
3:58 AM 38.1 °F 31.7 °F 8.6 °F 30% 30.29 in 10.0 mi NE 9.2 mph - N/A   Clear
4:58 AM 33.1 °F - 12.4 °F 42% 30.31 in 10.0 mi NNW 1.2 mph - N/A   Clear
5:58 AM 34.5 °F 31.6 °F 11.7 °F 39% 30.32 in 10.0 mi South 3.5 mph - N/A   Clear
6:45 AM 37.4 °F 27.2 °F 6.8 °F 28% 30.31 in 10.0 mi North 19.6 mph 27.6 mph N/A   Clear
6:53 AM 39.2 °F 31.2 °F 6.8 °F 26% 30.32 in 10.0 mi NE 13.8 mph 23.0 mph N/A   Clear
6:54 AM 39.2 °F 31.6 °F 6.8 °F 26% 30.32 in 10.0 mi NE 12.7 mph 23.0 mph N/A   Clear
6:58 AM 39.0 °F 31.8 °F 7.3 °F 27% 30.35 in 10.0 mi ENE 11.5 mph 23.0 mph N/A   Clear
7:58 AM 37.0 °F - 8.4 °F 31% 30.36 in 10.0 mi Calm Calm - N/A   Clear
8:58 AM 40.1 °F 35.3 °F 11.7 °F 31% 30.38 in 10.0 mi WNW 6.9 mph - N/A   Clear
9:58 AM 43.7 °F - 11.1 °F 27% 30.38 in 10.0 mi Calm Calm - N/A   Clear
10:58 AM 48.6 °F - 7.7 °F 19% 30.34 in 10.0 mi Calm Calm - N/A   Clear
11:58 AM 50.2 °F - 4.3 °F 15% 30.30 in 10.0 mi NE 16.1 mph 17.3 mph N/A   Clear
12:58 PM 50.9 °F - 5.0 °F 16% 30.28 in 10.0 mi NNE 4.6 mph - N/A   Clear
1:58 PM 52.7 °F - 1.6 °F 12% 30.27 in 10.0 mi Calm Calm - N/A   Clear
2:58 PM 52.9 °F - 0.9 °F 12% 30.28 in 10.0 mi NE 8.1 mph - N/A   Clear
3:58 PM 51.8 °F - 1.8 °F 13% 30.28 in 10.0 mi Calm Calm - N/A   Clear
4:58 PM 45.1 °F - 4.3 °F 19% 30.30 in 10.0 mi Calm Calm - N/A   Clear
5:58 PM 40.6 °F 34.8 °F 5.2 °F 23% 30.31 in 10.0 mi ENE 9.2 mph - N/A   Clear
6:58 PM 36.3 °F 32.5 °F 6.3 °F 29% 30.32 in 10.0 mi ENE 4.6 mph - N/A   Clear
7:58 PM 37.2 °F 33.6 °F 5.4 °F 27% 30.32 in 10.0 mi NE 4.6 mph - N/A   Clear
8:58 PM 35.4 °F 28.4 °F 5.5 °F 29% 30.33 in 10.0 mi ENE 9.2 mph - N/A   Clear
9:58 PM 33.4 °F 29.1 °F 7.3 °F 34% 30.33 in 10.0 mi NE 4.6 mph - N/A   Clear
10:58 PM 36.5 °F 32.7 °F 6.4 °F 29% 30.33 in 10.0 mi North 4.6 mph - N/A   Clear
11:58 PM 33.1 °F 27.7 °F 6.6 °F 33% 30.33 in 10.0 mi WNW 5.8 mph - N/A   Clear